User: anonymous   Login
Location: La Fredeussais
(48.1780°N, 1.3980°W)
Time: 02:23:47
(UTC+00:00)
Language:

Envisat - Orbit

View from above orbital plane
View from above orbital plane
View from above satellite
View from above satellite

Ground track
Ground track

The orbit data is extracted from the following two-line orbital elements,

1 27386U 02009A   21259.47903230  .00000042  00000-0  27463-4 0  9996
2 27386  98.1561 248.9158 0001267  85.3662  86.3213 14.38041950 24083
Epoch (UTC): 16 September 2021 11:29:48
Eccentricity: 0.0001267
inclination: 98.1561°
perigee height: 764 km
apogee height: 766 km
right ascension of ascending node: 248.9158°
argument of perigee: 85.3662°
revolutions per day: 14.38041950
mean anomaly at epoch: 86.3213°
orbit number at epoch: 2408

The dashed part of the orbit path shows where the satellite is in the earth's shadow,  

DLR